Regional Weather Roundup
Issued by NWS Huntsville, AL

Home | Current Version | Previous Version | Text Only | Print | Product List | Glossary On
Versions: 1 2 3 4 5 6 7 8 9 10 11 12 13 14 15 16 17 18 19 20 21 22 23 24 25 26 27 28 29 30 31 32 33 34 35 36 37 38 39 40 41 42 43 44 45 46 47 48 49 50
000
ASUS44 KHUN 010810
RWRHUN

WEATHER ROUNDUP FOR THE TENNESSEE VALLEY
NATIONAL WEATHER SERVICE HUNTSVILLE AL
300 AM CDT MON SEP 01 2014

ALZ001>004-010900-
NORTHWEST ALABAMA

CITY           SKY/WX    TMP DP  RH WIND       PRES   REMARKS
SHOALS AIRPORT PTCLDY    74  71  91 CALM      30.07R
SHOALS TVA RES   N/A     73 N/A N/A MISG        N/A
$$

ALZ005>007-016-010900-
NORTH CENTRAL ALABAMA

CITY           SKY/WX    TMP DP  RH WIND       PRES   REMARKS
DECATUR AP     MOCLDY    73  71  93 MISG      30.07R
HUNTSVILLE AP  CLOUDY    75  71  87 E3        30.07R
HUN NWS/UAH      N/A     74  69  83 E2          N/A
MERIDIANVILLE  CLOUDY    70  66  88 CALM      30.08R
VINEMONT AP    FAIR      74  69  84 SE5       30.11S
$$

ALZ008>010-010900-
NORTHEAST ALABAMA

CITY           SKY/WX    TMP DP  RH WIND       PRES   REMARKS
ALBERTVILLE    PTCLDY    73  73 100 SE3       30.10R
FORT PAYNE     CLOUDY    70  66  88 CALM      30.10S FOG
SCOTTSBORO AP    N/A     72  72 100 CALM      30.10S FOG
SCOTTSBORO HCN   N/A     72 N/A N/A MISG        N/A
VALLEY HEAD      N/A     70 N/A N/A MISG        N/A
$$

TNZ076-096-097-010900-
SOUTHEASTERN MIDDLE TENNESSEE

CITY           SKY/WX    TMP DP  RH WIND       PRES   REMARKS
FAYETTEVILLE   PTCLDY    72  68  88 CALM      30.09R
TULLAHOMA      PTCLDY    70  68  94 CALM      30.11R
WINCHESTER     CLEAR     72  70  94 CALM      30.10R
$$

...SURROUNDING SITES...

CITY           SKY/WX    TMP DP  RH WIND       PRES   REMARKS
ATLANTA        MOCLDY    75  70  84 SW3       30.10F
ANNISTON       PTCLDY    72  70  93 CALM      30.09S
BIRMINGHAM     MOCLDY    78  68  71 S5        30.10S
CHATTANOOGA    CLOUDY    73  71  93 CALM      30.10R
CORINTH        MOCLDY    73  72  94 S6        30.03S FOG
DALTON         CLOUDY    72  72 100 CALM      30.10S
GADSDEN        PTCLDY    70  66  88 CALM      30.08F
GOLDEN TRNGL   PTCLDY    73  70  88 S6        30.04S
HALEYVILLE     FAIR      73  72  97 CALM      30.10S
JACKSON TN     CLEAR     75  72  90 S7        30.02R
LEWISBURG      MOCLDY    73  71  93 CALM      30.07R
MEMPHIS        CLEAR     76  73  91 S5        30.00S
MURFREESBORO   MOCLDY    74  71  90 S5        30.07R
NASHVILLE      CLOUDY    74  72  93 CALM      30.06R
ROME           CLOUDY    70  69  97 E3        30.09S
SAVANNAH       CLEAR     73  73 100 S3        30.04S
TUPELO         CLEAR     75  71  87 SW5       30.03R
TUSCALOOSA     CLEAR     74  71  91 CALM      30.06S
$$

...GULF COAST WEATHER...

CITY           SKY/WX    TMP DP  RH WIND       PRES   REMARKS
GULFPORT       CLEAR     83  75  77 SE12      30.01F HX  90
PASCAGOULA     PTCLDY    73  72  96 CALM      30.03S FOG
MOBILE           N/A     77  76  96 SE3       30.04F
GULF SHORES    MOSUNNY   80  75  85 SE3       30.03F
PENSACOLA      CLEAR     82  75  79 S7        30.03F
DESTIN         PTCLDY    84  76  76 SE6       30.05F HX  93
PANAMA CITY    CLEAR     76  75  99 CALM      30.06F
APPALACHICOLA  CLEAR     76  74  93 CALM      30.05F
$$



USA.gov is the U.S. government's official web portal to all federal, state and local government web resources and services.